Home   Weather   Hammerfest   Past weeks
Flag for Norway

Past Weather in Hammerfest, Norway — Yesterday and Last 2 Weeks

Now
50 °F

Scattered clouds.


Feels Like: 46 °F
Forecast: 47 / 45 °F
Wind: 9 mph from West

Location: Hammerfest

Current Time: Jun 24, 2019 at 9:59:17 pm

Latest Report: Jun 24, 2019 at 9:20 pm


Visibility: N/A

Pressure: 30.18 "Hg

Humidity: 71%

Dew Point: 41 °F

Location of HammerfestLocation

Past Weather in Hammerfest — Graph

°F

Hammerfest Temperature Yesterday

Maximum temperature yesterday: 57 °F (at 12:50 pm)
Minimum temperature yesterday: 45 °F (at 1:20 am)
Average temperature yesterday: 51 °F

High & Low Weather Summary for the Past Weeks

 TemperatureHumidityPressure
High63 °F (Jun 21, 2:20 pm)100% (Jun 10, 10:50 am)30.42 "Hg (Jun 10, 10:50 am)
Low34 °F (Jun 10, 8:20 am)41% (Jun 23, 12:50 pm)29.68 "Hg (Jun 22, 6:20 am)
Average45 °F76%30.00 "Hg
* Reported Jun 9 9:20 pm — Jun 24 9:20 pm, Hammerfest. Weather by CustomWeather, © 2019

Note: Actual official high and low records may vary slightly from our data, if they occured in-between our weather recording intervals... More about our weather records

Advertising

Hammerfest Weather History for the Previous 24 Hours

Scroll right to see more
 ConditionsComfort  
Time TempWeatherWind HumidityBarometerVisibility
9:20 pm
Mon, Jun 24
50 °FScattered clouds.9 mph71%30.18 "HgN/A
8:20 pm48 °FScattered clouds.10 mph82%30.18 "HgN/A
7:50 pm48 °FScattered clouds.10 mph82%30.18 "HgN/A
7:20 pm48 °FPassing clouds.9 mph87%30.18 "HgN/A
6:50 pm48 °FScattered clouds.10 mph87%30.21 "HgN/A
6:20 pm48 °FPartly sunny.12 mph82%30.21 "HgN/A
5:50 pm50 °FScattered clouds.10 mph76%30.21 "HgN/A
5:20 pm48 °FPartly sunny.9 mph82%30.21 "HgN/A
4:50 pm50 °FPartly sunny.8 mph82%30.21 "HgN/A
4:20 pm48 °FLight rain. Partly sunny.8 mph87%30.21 "HgN/A
3:50 pm52 °FScattered clouds.5 mph77%30.21 "HgN/A
3:20 pm54 °FScattered clouds.6 mph67%30.18 "HgN/A
2:20 pm54 °FScattered clouds.5 mph72%30.18 "HgN/A
1:50 pm50 °FPartly sunny.3 mph88%30.18 "HgN/A
1:20 pm48 °FPartly sunny.7 mph87%30.18 "HgN/A
12:50 pm50 °FPartly sunny.7 mph82%30.18 "HgN/A
12:20 pm50 °FPartly sunny.6 mph88%30.18 "HgN/A
11:50 am52 °FPartly sunny.8 mph82%30.18 "HgN/A
11:20 am48 °FPartly sunny.6 mph87%30.18 "HgN/A
10:50 am48 °FPartly sunny.12 mph94%30.18 "HgN/A
10:20 am48 °FPartly sunny.9 mph94%30.15 "HgN/A
9:50 am48 °FPartly sunny.8 mph87%30.15 "HgN/A
9:20 am48 °FPartly sunny.7 mph87%30.15 "HgN/A
8:50 am50 °FBroken clouds.5 mph82%30.15 "HgN/A
8:20 am50 °FBroken clouds.3 mph82%30.15 "HgN/A
7:50 am50 °FBroken clouds.6 mph82%30.15 "HgN/A
7:20 am50 °FPartly sunny.5 mph82%30.15 "HgN/A
6:50 am50 °FBroken clouds.5 mph82%30.12 "HgN/A
6:20 am48 °FPartly sunny.3 mph87%30.12 "HgN/A
5:50 am48 °FPartly sunny.3 mph87%30.12 "HgN/A
5:20 am48 °FOvercast.5 mph87%30.12 "HgN/A
4:50 am48 °FPartly sunny.5 mph87%30.12 "HgN/A
4:20 am48 °FPartly sunny.3 mph87%30.12 "HgN/A
3:50 am48 °FPartly sunny.3 mph87%30.12 "HgN/A
3:20 am48 °FPartly sunny.3 mph87%30.12 "HgN/A
2:50 am48 °FPartly sunny.3 mph87%30.09 "HgN/A
2:20 am48 °FScattered clouds.3 mph87%30.09 "HgN/A
1:50 am48 °FPartly sunny.2 mph87%30.09 "HgN/A
1:20 am48 °FPartly sunny.3 mph87%30.09 "HgN/A
12:50 am48 °FPartly sunny.3 mph87%30.09 "HgN/A
12:20 am48 °FBroken clouds.No wind87%30.09 "HgN/A
11:50 pm
Sun, Jun 23
48 °FBroken clouds.3 mph87%30.09 "HgN/A
11:20 pm48 °FBroken clouds.6 mph87%30.09 "HgN/A
10:50 pm48 °FBroken clouds.5 mph87%30.07 "HgN/A
10:20 pm48 °FScattered clouds.3 mph82%30.07 "HgN/A
9:50 pm50 °FScattered clouds.5 mph76%30.07 "HgN/A
9:20 pm50 °FPartly sunny.3 mph82%30.07 "HgN/A
Weather by CustomWeather, © 2019

See weather overview